TimePST,TemperatureF,Dew PointF,Humidity,Sea Level PressureIn,VisibilityMPH,Wind Direction,Wind SpeedMPH,Gust SpeedMPH,PrecipitationIn,Events,Conditions,WindDirDegrees,DateUTC
12:56 AM,48.0,32.0,54,30.00,10.0,North,18.4,24.2,N/A,,Clear,360,2012-12-07 08:56:00
1:56 AM,44.1,30.9,60,30.02,10.0,NW,8.1,-,N/A,,Clear,320,2012-12-07 09:56:00
2:56 AM,43.0,30.9,62,30.02,10.0,West,10.4,-,N/A,,Clear,270,2012-12-07 10:56:00
3:56 AM,41.0,28.9,62,30.02,10.0,North,6.9,-,N/A,,Clear,360,2012-12-07 11:56:00
4:56 AM,43.0,28.0,56,30.04,10.0,NW,12.7,-,N/A,,Clear,320,2012-12-07 12:56:00
5:56 AM,44.1,27.0,51,30.06,10.0,NW,17.3,-,N/A,,Clear,320,2012-12-07 13:56:00
6:56 AM,41.0,24.1,51,30.09,10.0,WNW,11.5,-,N/A,,Clear,300,2012-12-07 14:56:00
7:56 AM,44.1,25.0,47,30.11,10.0,NW,5.8,-,N/A,,Clear,310,2012-12-07 15:56:00
8:56 AM,50.0,25.0,38,30.11,10.0,Calm,Calm,-,N/A,,Clear,0,2012-12-07 16:56:00
9:56 AM,55.9,19.9,25,30.11,10.0,NW,12.7,-,N/A,,Clear,310,2012-12-07 17:56:00
10:56 AM,60.1,18.0,20,30.06,10.0,NW,10.4,-,N/A,,Clear,310,2012-12-07 18:56:00
11:56 AM,61.0,18.0,19,30.02,10.0,NNW,9.2,-,N/A,,Clear,330,2012-12-07 19:56:00
12:56 PM,63.0,14.0,15,29.98,10.0,Variable,6.9,-,N/A,,Clear,0,2012-12-07 20:56:00
1:56 PM,62.1,17.1,18,29.96,10.0,West,8.1,-,N/A,,Clear,280,2012-12-07 21:56:00
2:56 PM,62.1,16.0,17,29.95,10.0,West,8.1,-,N/A,,Clear,260,2012-12-07 22:56:00
3:56 PM,62.1,10.9,13,29.96,10.0,WNW,4.6,-,N/A,,Clear,300,2012-12-07 23:56:00
4:56 PM,53.1,7.0,16,29.98,10.0,NNW,9.2,-,N/A,,Clear,330,2012-12-08 00:56:00
5:56 PM,48.9,12.0,23,29.99,10.0,WNW,8.1,-,N/A,,Clear,290,2012-12-08 01:56:00
6:56 PM,48.9,12.0,23,30.00,10.0,WNW,4.6,-,N/A,,Clear,300,2012-12-08 02:56:00
7:56 PM,42.1,8.1,25,30.02,10.0,West,4.6,-,N/A,,Clear,280,2012-12-08 03:56:00
8:56 PM,35.1,7.0,31,30.03,10.0,Calm,Calm,-,N/A,,Clear,0,2012-12-08 04:56:00
9:56 PM,33.1,8.1,35,30.02,10.0,South,3.5,-,N/A,,Clear,190,2012-12-08 05:56:00
10:56 PM,30.0,10.9,45,30.03,10.0,NW,4.6,-,N/A,,Clear,310,2012-12-08 06:56:00
11:56 PM,28.0,12.0,51,30.03,10.0,WNW,5.8,-,N/A,,Clear,300,2012-12-08 07:56:00